Norman, Oklahoma, United States (73019)
Lat: 35.22N, Lon: 97.44W
Wx Zone: OKZ029
Local Info
Past Weather Observations for Today

NOTE: This archive is for the closest National Weather Service station to Norman. Information may differ from the station used for current weather conditions.

Click here for Long-term Archive

Time Weather Temperature Dewpoint Humidity Pressure Winds Precip Visibility
14:55
Clear
88°F / 31°C 72°F / 22°C 59% 29.95 in
(1014 mb)
SSE 17.3 mph
(SSE 28 kph)
- 10SM
14:35
Clear
88°F / 31°C 72°F / 22°C 59% 29.95 in
(1014 mb)
SE 19.6 mph
(SE 32 kph)
- 10SM
14:15
Clear
86°F / 30°C 72°F / 22°C 62% 29.95 in
(1014 mb)
SE 16.1 mph
(SE 26 kph)
- 10SM
13:55
Clear
86°F / 30°C 70°F / 21°C 59% 29.98 in
(1015 mb)
SE 15 mph
(SE 24 kph)
- 10SM
13:35
Clear
84°F / 29°C 72°F / 22°C 66% 29.98 in
(1015 mb)
SE 19.6 mph
(SE 32 kph)
- 10SM
13:15
Clear
82°F / 28°C 72°F / 22°C 70% 29.98 in
(1015 mb)
SE 19.6 mph
(SE 32 kph)
- 10SM
12:55
Clear
81°F / 27°C 70°F / 21°C 70% 30.01 in
(1016 mb)
ESE 19.6 mph
(ESE 32 kph)
- 10SM
12:35
Clear
81°F / 27°C 72°F / 22°C 74% 30.01 in
(1016 mb)
SE 20.7 mph
(SE 33 kph)
- 10SM
12:15
Partly Cloudy
81°F / 27°C 72°F / 22°C 74% 30.04 in
(1017 mb)
E 20.7 mph
(E 33 kph)
- 10SM
11:55
Mostly Cloudy
79°F / 26°C 72°F / 22°C 79% 30.04 in
(1017 mb)
E 21.9 mph
(E 35 kph)
- 10SM
11:35
Mostly Cloudy
79°F / 26°C 72°F / 22°C 79% 30.04 in
(1017 mb)
E 20.7 mph
(E 33 kph)
- 10SM
11:15
Partly Cloudy
Thunder Storms
79°F / 26°C 72°F / 22°C 79% 30.04 in
(1017 mb)
ESE 20.7 mph
(ESE 33 kph)
- 10SM
10:55
Partly Cloudy
79°F / 26°C 72°F / 22°C 79% 30.04 in
(1017 mb)
ESE 19.6 mph
(ESE 32 kph)
- 10SM
10:35
Clear
79°F / 26°C 72°F / 22°C 79% 30.04 in
(1017 mb)
E 19.6 mph
(E 32 kph)
- 10SM
10:15
Clear
79°F / 26°C 72°F / 22°C 79% 30.04 in
(1017 mb)
SE 18.4 mph
(SE 30 kph)
- 10SM
09:55
Clear
77°F / 25°C 72°F / 22°C 83% 30.01 in
(1016 mb)
ESE 12.7 mph
(ESE 20 kph)
- 10SM
09:35
Partly Cloudy
77°F / 25°C 72°F / 22°C 83% 30.01 in
(1016 mb)
E 12.7 mph
(E 20 kph)
- 10SM
09:15
Mostly Cloudy
77°F / 25°C 72°F / 22°C 83% 30.01 in
(1016 mb)
E 10.4 mph
(E 17 kph)
- 10SM
08:55
Mostly Cloudy
75°F / 24°C 72°F / 22°C 89% 30.01 in
(1016 mb)
E 12.7 mph
(E 20 kph)
- 10SM
08:35
Partly Cloudy
Thunder Storms
77°F / 25°C 72°F / 22°C 83% 30.01 in
(1016 mb)
ESE 10.4 mph
(ESE 17 kph)
- 10SM
08:15
Mostly Cloudy
Thunder Storms
77°F / 25°C 72°F / 22°C 83% 30.01 in
(1016 mb)
E 6.9 mph
(E 11 kph)
- 10SM
07:55
Overcast
Thunder Storms
77°F / 25°C 72°F / 22°C 83% 30.01 in
(1016 mb)
E 6.9 mph
(E 11 kph)
0.01 in
(0.25 mm)
10SM
07:35
Mostly Cloudy
Thunder Storms
77°F / 25°C 70°F / 21°C 79% 30.01 in
(1016 mb)
ENE 6.9 mph
(ENE 11 kph)
0.01 in
(0.25 mm)
7SM
07:15
Mostly Cloudy
77°F / 25°C 70°F / 21°C 79% 29.98 in
(1015 mb)
NNE 5.8 mph
(NNE 9 kph)
- 10SM
06:55
Mostly Cloudy
Thunder Storms
77°F / 25°C 70°F / 21°C 79% 29.98 in
(1015 mb)
N 13.8 mph
(N 22 kph)
- 10SM
06:35
Partly Cloudy
Thunder Storms
77°F / 25°C 68°F / 20°C 74% 29.95 in
(1014 mb)
SW 5.8 mph
(SW 9 kph)
- 10SM
06:15
Partly Cloudy
Thunder Storms
77°F / 25°C 68°F / 20°C 74% 29.92 in
(1013 mb)
S 5.8 mph
(S 9 kph)
- 10SM
05:55
Clear
77°F / 25°C 68°F / 20°C 74% 29.92 in
(1013 mb)
S 10.4 mph
(S 17 kph)
- 10SM
05:35
Clear
77°F / 25°C 68°F / 20°C 74% 29.89 in
(1012 mb)
S 10.4 mph
(S 17 kph)
- 10SM
05:15
Clear
77°F / 25°C 68°F / 20°C 74% 29.89 in
(1012 mb)
S 10.4 mph
(S 17 kph)
- 10SM
04:55
Clear
77°F / 25°C 68°F / 20°C 74% 29.86 in
(1011 mb)
S 11.5 mph
(S 19 kph)
- 10SM
04:35
Clear
77°F / 25°C 68°F / 20°C 74% 29.86 in
(1011 mb)
S 10.4 mph
(S 17 kph)
- 10SM
04:15
Clear
77°F / 25°C 68°F / 20°C 74% 29.86 in
(1011 mb)
S 12.7 mph
(S 20 kph)
- 10SM
03:55
Clear
79°F / 26°C 68°F / 20°C 70% 29.86 in
(1011 mb)
S 13.8 mph
(S 22 kph)
- 10SM
03:35
Clear
79°F / 26°C 68°F / 20°C 70% 29.86 in
(1011 mb)
S 12.7 mph
(S 20 kph)
- 10SM
03:15
Clear
79°F / 26°C 68°F / 20°C 70% 29.86 in
(1011 mb)
S 15 mph
(S 24 kph)
- 10SM
02:55
Clear
79°F / 26°C 68°F / 20°C 70% 29.86 in
(1011 mb)
S 12.7 mph
(S 20 kph)
- 10SM
02:35
Clear
79°F / 26°C 68°F / 20°C 70% 29.86 in
(1011 mb)
S 15 mph
(S 24 kph)
- 10SM
02:15
Clear
79°F / 26°C 68°F / 20°C 70% 29.86 in
(1011 mb)
S 19.6 mph
(S 32 kph)
- 10SM
01:55
Clear
79°F / 26°C 68°F / 20°C 70% 29.86 in
(1011 mb)
S 16.1 mph
(S 26 kph)
- 10SM
01:35
Clear
81°F / 27°C 68°F / 20°C 66% 29.86 in
(1011 mb)
S 16.1 mph
(S 26 kph)
- 10SM
01:15
Clear
81°F / 27°C 68°F / 20°C 66% 29.86 in
(1011 mb)
S 15 mph
(S 24 kph)
- 10SM
00:55
Clear
81°F / 27°C 68°F / 20°C 66% 29.86 in
(1011 mb)
S 12.7 mph
(S 20 kph)
- 10SM
00:35
Clear
81°F / 27°C 68°F / 20°C 66% 29.86 in
(1011 mb)
S 15 mph
(S 24 kph)
- 10SM
00:15
Clear
81°F / 27°C 68°F / 20°C 66% 29.86 in
(1011 mb)
SSE 12.7 mph
(SSE 20 kph)
- 10SM
Time Weather Temperature Dewpoint Humidity Pressure Winds Precip Visibility


Weather for websites

WeatherForYou.com, LLC is not responsible for any damages or problems caused by this service. Current weather conditions are obtained from the closest station including government and personal stations which may have varying degrees of accuracy. Weather forecasts are derived from the NOAA NDFD. Like all things, this site belongs to Jesus Christ... He just trusts me to maintain it. If you have any questions or comments email webmaster@weatherforyou.com

Copyright © 2014, WeatherForYou.com LLC. All rights reserved.